GFSNGP_sfc_rhum_141.txt.gz
RH
42 31 33 34 32 28 43 32 44 56 35 30 28 26 23 24 26 30 41 47 51 51 51 53 53 56 58 68 87 86 82 83 84 82 79 75 73 66 63 68 71 65 62 65
100 34 32 41 34 28 39 36 40 41 40 26 22 23 26 28 34 35 44 49 50 48 42 38 39 47 43 55 77 75 83 84 81 80 80 78 77 70 73 69 77 85 80 78
83 40 37 55 68 50 37 30 31 41 29 21 24 23 27 33 40 45 46 51 49 44 34 35 36 37 40 50 59 55 77 80 81 81 81 81 76 77 78 84 81 83 85 83
62 57 74 50 31 30 40 35 24 22 20 19 25 36 51 47 48 49 49 51 45 35 35 38 28 28 31 29 40 47 47 62 79 82 82 80 80 82 82 83 82 82 84 84
72 58 40 29 28 33 37 36 24 24 23 22 42 41 45 51 48 53 57 52 70 43 40 34 31 32 30 30 31 38 43 45 48 72 79 79 82 81 82 81 80 82 81 82
54 61 55 31 28 26 30 69 27 23 25 28 40 47 71 59 54 63 99 87 76 77 40 61 62 42 72 52 56 64 61 50 48 51 60 74 78 79 82 85 82 80 78 78
56 54 38 22 27 31 65 49 30 28 31 41 53 65 82 63 63 71 90 94 92 96 86 82 80 75 82 82 84 80 76 66 68 60 64 63 64 68 68 70 71 78 77 81
51 54 49 23 35 52 37 40 36 37 50 100 98 100 100 100 97 81 81 88 87 88 89 86 82 82 83 86 83 79 79 79 78 77 79 77 75 76 71 68 69 69 66 61
38 40 32 28 34 37 34 36 38 38 45 96 100 100 99 84 72 68 78 80 81 89 88 85 82 80 83 86 82 81 79 80 78 77 81 85 83 82 71 73 69 71 66 70
43 40 32 36 31 28 29 38 35 38 42 67 90 98 98 78 62 57 52 58 62 76 87 88 83 79 80 83 82 80 79 78 77 79 81 83 72 70 73 76 74 73 72 75
44 55 33 30 33 36 33 36 43 43 47 56 70 77 82 78 60 52 48 48 50 54 59 72 71 78 80 79 75 71 72 74 68 66 73 73 76 74 67 74 69 70 85 73
70 41 47 45 45 46 46 48 43 48 54 49 54 64 61 62 50 44 43 41 40 40 44 52 54 57 58 56 54 58 56 57 54 56 56 57 61 66 62 62 61 62 61 68
52 38 37 50 51 44 43 44 45 48 45 49 47 49 51 51 46 48 38 38 36 37 38 42 44 43 43 44 43 41 36 40 46 49 48 51 51 54 82 73 64 64 61 64
38 44 56 53 52 47 45 45 51 44 43 44 43 43 47 46 44 41 38 36 33 34 38 40 41 45 43 41 40 45 43 54 51 56 60 62 63 65 65 68 75 84 69 66
44 43 44 45 44 46 44 46 50 49 48 48 45 49 47 48 46 47 41 35 32 35 41 41 43 54 44 43 46 58 58 59 66 70 72 70 68 67 65 66 66 65 60 57
43 43 45 51 47 48 47 49 49 47 50 53 53 52 49 46 43 41 37 36 43 51 54 63 58 66 52 47 52 62 68 69 69 71 72 68 68 64 62 62 63 62 65 69
52 58 54 55 52 51 52 48 47 46 50 55 56 53 50 50 52 51 54 54 62 72 70 73 78 74 72 73 71 66 70 70 64 64 61 61 61 61 58 60 59 56 66 78
38 42 45 45 47 53 60 60 61 59 60 62 91 94 88 79 76 74 80 90 90 79 76 79 81 80 78 76 68 62 64 64 61 62 58 62 56 53 58 57 55 57 60 74
45 47 50 49 50 56 63 66 68 81 94 91 88 85 88 85 94 92 94 95 96 89 85 87 81 77 76 74 60 57 60 62 58 54 56 69 65 55 63 66 64 67 63 62
53 57 58 65 77 79 92 100 100 94 92 93 89 90 90 92 92 92 94 93 90 78 86 80 76 68 68 66 61 52 62 67 59 64 72 64 71 74 74 70 65 68 73 72
80 93 100 100 100 100 98 94 92 92 89 87 85 85 87 89 90 90 92 84 93 88 74 76 64 60 57 60 57 68 70 74 73 72 77 74 78 68 71 72 72 73 75 74
100 100 100 100 98 100 96 93 92 89 87 86 88 87 90 88 90 90 84 74 72 80 74 69 59 60 56 66 53 75 72 69 69 70 73 74 74 74 73 73 73 74 74 75
100 100 100 100 99 100 92 91 89 87 86 85 85 85 82 75 72 76 79 71 72 72 65 68 65 68 75 77 76 80 74 74 74 74 74 75 74 74 73 72 73 74 75 74
100 100 100 100 96 93 91 90 86 84 83 82 82 83 76 81 84 74 67 71 70 77 74 78 78 76 73 83 86 84 82 78 77 77 73 70 76 76 73 74 72 73 75 78
92 95 94 93 86 83 84 79 78 79 78 71 75 77 72 69 82 81 76 74 73 69 76 79 78 76 82 86 87 83 82 80 78 78 77 76 75 75 74 73 74 74 75 76
81 74 73 70 70 69 70 69 73 73 71 83 82 86 91 88 84 82 81 71 71 66 81 86 84 82 87 87 84 81 79 77 77 73 74 73 73 72 73 71 74 74 75 76
72 75 67 66 62 65 69 70 81 82 86 87 85 90 87 90 89 83 80 76 74 77 83 84 85 85 87 85 82 79 78 77 74 74 74 75 73 74 74 74 75 75 76 78

GFSNGP_sfc_rhum_147.txt.gz
RH
62 43 45 51 51 50 61 54 60 65 51 50 44 38 35 39 49 62 72 80 81 87 88 88 94 93 92 94 97 96 97 97 97 96 95 92 90 84 81 84 83 81 79 81
84 48 47 60 55 52 60 58 60 63 61 43 39 34 39 39 44 60 67 69 73 74 74 75 79 87 86 90 95 93 97 97 96 96 95 94 94 87 85 83 88 88 88 86
82 53 62 84 71 66 59 49 50 61 48 41 37 39 51 45 48 56 62 65 64 66 64 64 66 69 86 89 88 92 96 97 96 96 96 96 95 94 94 92 92 93 89 89
95 69 85 63 53 50 52 44 38 34 34 35 43 65 66 61 64 59 64 64 63 61 60 58 53 63 71 71 84 87 86 89 95 95 95 96 96 96 96 97 96 94 96 90
93 91 68 52 44 51 63 57 43 41 36 48 58 63 79 64 70 71 74 76 76 67 57 51 49 56 57 60 60 74 86 83 82 92 95 96 96 95 96 97 97 95 96 95
98 96 93 66 36 32 41 63 42 36 43 57 53 83 93 77 83 87 87 80 74 69 60 72 71 59 74 73 76 76 74 78 78 82 84 93 94 92 94 96 96 95 96 94
97 91 89 46 33 35 66 67 46 43 48 59 74 81 86 90 89 88 92 83 86 82 84 87 88 82 89 91 92 95 89 82 81 79 83 83 86 86 90 91 93 94 93 92
96 97 93 40 33 51 62 61 50 50 73 100 100 99 100 94 93 88 90 94 90 88 91 94 89 87 94 95 96 94 92 93 94 94 95 93 92 95 91 89 91 92 87 85
75 78 58 54 60 58 56 55 54 57 84 97 100 100 99 96 90 91 92 96 94 91 95 96 94 89 94 96 94 93 94 95 96 96 96 94 94 95 94 96 93 94 90 94
66 58 49 48 50 61 61 53 50 66 84 91 92 97 97 94 91 89 89 95 90 94 96 98 95 92 90 94 94 93 93 95 96 95 97 95 94 94 94 97 96 95 94 95
73 66 52 51 63 68 63 60 63 62 86 84 90 96 92 94 89 85 85 86 87 88 89 94 93 94 92 92 90 88 90 94 91 91 92 92 94 93 86 96 91 93 97 94
86 64 61 65 68 60 59 56 51 58 69 86 87 94 92 93 81 74 76 75 80 80 84 89 88 90 86 84 81 83 82 84 87 86 87 85 85 91 66 68 65 67 72 79
66 55 64 66 60 56 56 58 52 50 63 66 80 79 82 84 78 70 67 68 71 72 73 80 82 88 81 78 76 75 76 73 78 80 82 84 83 83 92 80 66 66 63 63
57 56 70 61 76 58 52 53 59 55 56 63 63 69 74 74 73 67 64 62 60 61 66 72 74 79 75 73 72 72 73 76 79 86 87 87 90 93 94 94 96 97 72 68
55 49 54 53 57 59 55 54 60 62 61 62 63 72 73 78 81 76 71 61 57 60 64 66 70 75 67 65 66 80 74 83 94 92 93 92 92 93 94 95 95 95 97 88
53 51 49 56 57 59 59 60 63 65 68 69 72 73 78 77 80 76 70 62 60 65 68 70 72 73 63 64 72 81 91 92 90 90 91 92 92 90 91 90 92 94 91 92
65 64 59 66 65 61 65 63 63 63 71 78 77 75 75 80 78 76 78 76 78 83 77 78 82 79 82 82 84 95 94 90 88 89 91 89 91 91 90 90 93 92 90 92
60 66 66 67 68 72 80 82 84 85 87 87 88 85 84 82 86 90 91 88 89 92 88 85 83 82 82 83 85 88 92 91 86 91 86 90 84 80 87 83 86 93 89 86
64 73 79 80 79 82 88 92 94 92 92 92 87 92 93 90 90 94 91 88 91 96 98 87 82 83 82 83 83 83 87 91 92 78 83 87 90 86 90 90 90 91 93 92
90 90 90 95 96 95 96 96 94 96 97 93 94 95 97 98 95 94 92 94 93 95 93 94 95 93 79 84 80 80 83 91 86 92 89 89 93 95 92 87 91 94 94 94
98 96 94 96 98 96 95 96 96 97 96 94 95 96 97 99 96 96 96 96 99 95 93 93 92 88 77 88 82 89 90 92 93 92 93 96 94 94 92 90 92 94 94 95
96 96 96 95 96 97 96 95 94 95 94 96 96 96 96 98 98 97 95 92 95 96 94 92 85 85 82 88 88 90 91 89 92 90 93 94 93 93 92 93 94 94 94 95
97 96 95 94 95 97 96 96 95 94 96 97 96 95 96 96 96 97 98 94 94 96 91 91 93 88 87 93 97 93 92 90 94 94 94 95 96 94 93 91 94 93 94 94
96 96 98 96 94 94 97 98 96 95 96 95 94 92 92 97 98 94 92 97 97 91 94 94 88 88 89 96 96 95 95 96 96 95 93 92 94 94 93 92 93 95 92 92
97 98 98 97 95 95 94 94 95 96 92 89 87 94 88 94 96 97 94 94 92 95 95 95 88 86 93 97 96 96 96 95 94 93 93 94 92 92 93 91 94 95 94 94
95 96 95 91 94 91 91 90 93 93 92 96 97 98 97 98 93 94 95 94 91 97 96 94 93 95 96 96 96 95 95 93 93 92 93 94 93 94 94 92 93 92 97 100
91 91 91 94 93 87 89 91 96 96 95 94 94 98 98 97 95 95 97 93 98 96 95 95 94 97 95 95 95 95 94 94 93 94 94 94 93 94 91 93 94 98 97 98

GFSNGP_sfc_rhum_150.txt.gz
RH
80 74 53 45 41 45 57 54 60 65 55 53 55 48 37 36 56 74 74 79 80 84 87 90 92 95 92 96 97 97 97 96 98 98 97 95 94 86 82 84 85 84 82 85
80 57 51 59 54 55 67 64 63 65 64 47 42 40 42 44 64 75 78 75 77 79 76 88 81 91 82 90 96 94 97 98 97 97 97 97 92 85 87 85 89 93 91 91
92 60 64 75 72 61 61 56 55 67 52 46 43 39 47 51 64 70 75 76 78 78 77 78 79 80 88 90 89 90 95 98 97 97 97 98 95 89 93 96 95 94 93 94
84 76 94 68 51 49 55 49 46 41 44 40 43 65 68 60 65 73 74 76 76 75 75 78 77 82 83 81 83 87 88 91 97 97 97 98 97 97 97 96 96 97 93 93
98 95 76 54 55 60 64 51 48 47 45 53 72 68 73 68 66 69 79 78 79 74 74 70 75 79 80 78 78 78 82 83 83 92 96 97 97 98 98 97 96 97 97 94
98 96 92 63 42 41 51 72 47 51 55 67 65 82 87 79 82 83 90 87 82 76 64 72 79 74 84 87 88 89 84 80 77 82 84 90 93 95 97 96 97 95 93 94
94 97 87 60 48 44 66 62 48 50 57 68 72 75 79 88 87 87 92 85 82 77 77 80 81 80 84 85 86 90 86 81 83 83 85 87 90 89 92 95 95 94 94 94
98 98 90 53 46 55 58 66 55 62 72 94 97 99 94 92 92 87 87 88 87 83 86 94 84 81 85 84 93 92 91 92 93 95 95 92 92 97 92 90 93 92 86 83
82 80 71 59 54 63 59 57 58 69 84 98 98 100 94 92 89 86 90 90 94 86 94 97 92 80 85 93 93 92 92 94 96 97 97 97 95 97 96 95 97 94 86 94
74 60 57 54 65 66 60 53 54 70 83 92 90 97 98 93 90 85 89 88 86 89 90 95 96 88 84 94 91 91 94 96 97 96 97 97 96 96 95 97 97 97 93 98
74 70 63 58 64 70 64 65 70 80 80 77 81 94 96 94 91 86 88 90 83 82 83 89 90 93 93 92 90 88 91 94 95 89 93 94 95 95 92 98 86 91 97 96
86 69 65 66 66 67 70 70 68 70 82 82 79 88 92 92 87 86 88 88 86 84 83 89 84 86 87 83 82 83 83 86 93 91 88 86 86 90 71 76 72 70 71 78
66 63 65 67 69 62 62 62 58 66 75 86 85 85 88 91 86 83 82 86 84 83 81 87 85 84 80 78 77 77 78 83 89 83 82 86 83 85 92 79 64 64 64 61
65 61 68 72 74 68 59 57 59 60 68 79 81 83 86 89 84 79 81 80 79 79 82 86 88 87 81 77 75 79 82 85 88 88 85 85 89 91 91 92 96 97 69 69
60 61 61 59 65 68 61 66 65 68 67 74 84 87 87 89 88 81 78 74 73 76 81 83 88 91 83 76 73 84 82 93 93 94 92 90 93 92 93 94 93 94 97 83
59 60 60 64 68 72 65 68 69 71 73 75 82 88 87 85 86 84 76 72 76 80 81 83 84 86 80 75 72 82 89 92 94 93 94 95 96 96 95 94 94 94 91 89
75 73 70 68 73 74 69 69 69 70 78 81 80 82 85 84 89 86 80 74 75 79 80 82 84 83 81 82 85 90 93 92 88 89 88 89 90 93 94 95 95 90 87 94
62 66 69 63 71 77 81 82 83 83 84 84 90 88 88 86 87 89 90 91 92 93 90 85 84 84 84 84 83 88 88 87 85 86 86 92 90 89 88 93 91 86 87 89
74 81 84 82 79 82 88 92 90 90 90 89 87 89 91 92 91 94 92 89 90 92 98 89 84 83 86 87 82 85 89 89 88 88 87 90 92 91 90 92 93 90 87 89
89 90 92 93 90 89 94 96 93 93 97 92 93 93 96 99 96 95 90 94 94 94 91 87 82 81 83 86 85 84 89 93 90 93 92 90 91 94 94 90 90 93 95 94
96 96 96 96 98 97 96 95 93 95 99 94 93 96 98 100 96 92 94 98 100 92 90 91 88 92 93 94 87 93 94 95 93 93 91 90 93 92 93 92 92 93 94 93
95 96 97 96 97 98 97 96 96 95 96 97 98 97 97 98 96 97 98 94 96 99 96 96 96 95 94 92 91 94 95 92 91 92 94 94 93 92 92 90 94 94 93 93
96 96 96 96 96 98 96 96 95 94 97 97 97 96 95 96 96 97 99 93 91 99 96 97 98 93 94 95 96 95 94 93 93 93 93 94 95 94 93 94 93 93 94 95
98 97 97 96 96 95 97 98 95 96 96 96 95 94 95 99 100 98 96 93 95 97 98 96 94 94 94 97 96 96 95 94 94 95 97 97 96 96 95 94 94 95 95 95
97 98 97 97 96 95 95 95 96 96 95 91 90 90 89 94 96 100 98 99 98 98 97 97 93 94 96 98 97 97 97 97 97 96 95 95 96 96 95 95 94 93 93 94
97 97 94 90 89 91 93 91 94 95 94 98 98 100 99 99 97 97 97 98 97 98 97 96 94 96 98 98 97 96 96 96 95 95 94 94 94 94 93 94 95 95 94 96
92 95 96 99 95 91 92 92 98 99 98 98 99 100 99 99 99 98 99 98 98 98 98 98 96 97 98 97 98 96 96 96 95 93 95 96 96 95 94 93 93 95 97 97

GFSNGP_sfc_rhum_156.txt.gz
RH
93 76 73 74 76 75 82 88 93 87 82 66 61 47 44 51 66 73 76 79 80 85 88 87 90 88 87 92 96 96 96 97 98 98 97 94 93 87 82 86 88 88 83 83
98 82 82 85 82 83 84 71 81 89 77 54 46 48 45 48 62 66 69 70 75 78 79 79 78 84 76 86 94 92 96 98 98 97 94 95 94 88 88 86 93 95 92 88
96 75 84 99 87 75 73 64 62 71 54 46 52 50 50 49 54 57 59 68 72 75 76 74 74 72 81 89 89 90 95 100 98 94 97 97 93 93 95 96 96 97 96 94
98 98 96 70 67 64 66 61 55 48 47 47 45 54 59 59 53 58 66 75 75 75 73 75 73 74 81 87 88 86 90 95 98 94 98 97 95 96 97 97 97 98 97 95
98 97 81 64 62 64 71 67 53 55 52 51 64 59 58 63 62 65 80 83 85 82 81 77 79 80 80 86 86 83 86 89 89 94 96 95 94 95 97 97 97 98 98 96
100 96 96 62 50 55 47 70 53 50 51 65 66 77 80 69 75 83 90 92 92 89 86 87 87 78 85 86 85 84 84 84 84 86 87 91 92 95 97 97 98 95 95 97
90 87 85 62 50 50 72 62 51 55 61 75 73 62 70 83 80 88 94 94 92 90 92 91 89 85 88 89 87 87 84 82 86 86 88 89 89 88 90 90 87 92 91 96
93 94 86 59 60 60 56 59 55 66 75 80 84 95 91 88 89 89 93 95 93 94 95 94 90 86 89 87 90 90 91 92 92 93 90 92 94 93 87 90 91 88 81 82
89 79 67 59 60 60 56 53 57 62 77 80 89 90 88 85 86 86 91 94 94 92 97 96 92 87 89 92 89 91 92 94 95 95 97 96 96 97 96 96 96 92 84 93
97 78 71 65 65 70 66 62 59 67 80 79 80 86 87 85 86 86 89 90 90 91 95 99 96 90 90 92 90 90 92 95 97 98 100 99 98 96 95 96 98 95 93 96
99 78 64 61 61 63 64 64 70 79 79 73 73 83 84 87 87 87 87 83 82 83 85 91 91 92 92 91 89 89 91 94 94 94 98 100 99 98 96 98 90 91 95 93
91 71 65 62 62 68 65 67 69 70 78 77 73 76 83 87 88 85 82 79 79 77 76 87 84 85 87 84 81 84 87 91 93 96 96 95 97 98 89 90 80 68 71 80
68 64 68 61 62 70 63 64 69 67 69 78 79 83 88 91 90 83 84 77 76 72 73 79 80 83 84 79 75 75 82 81 88 90 93 96 94 93 97 82 65 64 68 65
65 68 74 76 66 70 72 67 73 76 76 76 81 87 90 92 92 86 84 78 75 75 77 75 76 83 83 80 76 81 86 86 88 93 93 94 96 97 95 94 95 97 72 81
66 66 63 60 65 70 76 74 76 78 80 87 89 90 91 94 94 92 90 81 76 81 82 78 80 90 84 80 79 87 88 93 92 95 93 94 95 95 96 95 95 97 95 91
60 68 66 68 63 65 82 79 76 80 85 88 91 92 90 90 93 94 92 88 90 92 92 89 88 90 83 79 82 88 92 93 93 95 95 94 95 95 95 94 93 94 92 93
72 72 79 77 72 67 79 79 80 87 87 88 89 93 94 94 95 96 96 93 93 93 92 92 94 91 88 87 88 92 96 96 93 95 93 91 92 93 92 93 93 92 93 95
72 67 71 66 70 79 82 87 87 88 91 90 92 94 95 94 93 94 96 96 95 98 97 95 95 94 91 90 88 92 94 95 94 94 91 93 90 88 92 92 92 93 94 92
74 74 78 76 77 79 83 89 95 96 96 93 93 94 95 96 94 96 95 94 94 96 96 96 94 95 94 91 88 91 92 93 94 95 94 96 95 94 95 94 95 95 90 92
93 92 92 94 92 93 96 96 95 95 96 92 93 93 94 96 96 96 96 95 96 95 93 93 93 93 93 89 92 93 94 94 94 96 96 96 96 97 96 95 95 94 93 95
97 95 96 96 97 94 94 95 93 94 95 92 91 92 95 98 96 95 95 96 100 94 91 92 90 92 88 90 91 95 96 96 96 96 96 96 96 96 96 96 95 94 95 96
98 97 97 96 96 98 97 97 95 94 93 94 95 96 96 98 96 99 100 95 98 97 94 93 91 90 90 91 93 96 96 95 96 97 97 96 96 95 96 96 96 96 95 96
98 98 98 97 96 97 97 96 96 94 95 94 95 96 96 97 98 94 99 98 98 99 96 97 97 94 93 95 96 96 97 96 97 97 96 96 94 94 94 95 96 96 96 96
97 97 97 98 97 97 97 98 96 96 96 96 96 93 94 98 99 98 96 99 100 98 98 98 97 96 97 97 97 98 97 97 97 97 96 95 95 95 96 95 96 97 97 96
95 97 97 96 95 98 96 94 95 93 89 89 90 92 93 92 96 98 94 96 96 98 99 98 97 98 98 98 98 97 97 97 97 96 96 95 96 97 96 96 96 96 97 96
96 96 94 91 95 93 94 90 95 96 93 97 98 100 100 99 98 99 97 95 97 99 99 98 99 99 99 98 97 97 98 98 97 97 96 97 97 97 97 97 97 96 96 97
97 95 95 96 92 94 94 93 96 98 96 97 99 100 100 98 99 99 100 99 99 99 99 100 98 98 98 99 98 98 97 97 97 97 97 97 97 97 97 97 97 97 97 97